OBJECT N, 44891

Orbit data source: Space-Track

You're viewing an Uncataloged Satellite

Recently launched and/or uncataloged satellites may have evolving metadata. Metadata may include but not limited to: Owner, Maufacturer, Bus, Motor, and Mission.

OBJECT N, 44891 is a satellite in SSO that was launched on Fri, 20 Dec 2019 UTC launched from the Taiyaun Space Center, China (TSC). Unknown objects in Earth's orbit typically refer to objects detected orbiting the Earth but have not yet been identified or cataloged. These objects could be anything from previously untracked satellites, spent rocket stages, debris from satellite collisions, or even natural meteoroids temporarily captured by Earth's gravity.

Loading next visibility...
Identifier
44891, 2019-093N
Orbit
SSO
Country
Flag of TBDTBD
Related business
Manufacturer
SAST
Mission
Spacecraft
Bus & Motor
Unknown
Mass
Unknown
Launch date (UTC)
2019-12-20 (6 years ago)
Launch vehicle
Unknown
Launch site
Taiyaun Space Center, China (TSC)
Object type
Unknown
Shape & HBR
Unknown shape, 0.1 m
Radar Cross Section
Small (<0.1 m²)

Expand to show TLE details & history
Last TLE update: 7 hours ago

TLE from 7 hours ago
0 OBJECT N
1 44891U 19093N   25311.29655814  .00029982  00000-0  12923-2 0  9999
2 44891  98.0410  95.0202 0007963 101.9590 258.2538 15.22492446320870
Epoch: 2025-11-07T07:07Z
TLE epoch observation values (Epoch: 2025-11-07T07:07:02.623Z)
Latitude
0.00002°
Longitude
-58.48329°
Altitude
502.519 km
Speed
7.612 km/s
True Right ascension
06h 20m 04s
True Declination
0° 00' 00"
Sunlit
Object was in full shadow at epoch
Visualization orbit readout
Latitude
Unknown
Longitude
Unknown
Altitude
Unknown
Speed
Unknown
Apparent Right ascension
Unknown
Apparent Declination
Unknown
Sunlit
N/A
Visualization observer readout
Local Sidereal Time
10:08:01
Azimuth
Unknown
Elevation
Unknown
Doppler factor
Unknown
Orbital elements
Apogee altitude
500.79 km
Perigee altitude
489.843 km
Semi-major axis
6,873.453 km
Eccentricity
0.0008
Inclination
98.041°
RAAN
95.0202°
Arg. of periapsis
101.959°
True anomaly
258.16448°
Mean anomaly
258.2538°
Eccentric anomaly
258.20914°
Mean motion
3.80873 °/min
Orbital period
94.52 mins
BSTAR
0.0012923
Loading maneuver chart data...
Computing Atmospheric mass density...
Loading historical data...
Loading historical data...
Loading historical data...
Loading historical data...
Loading historical data...
Loading historical data...
Loading historical data...

Documentation

Showing up to 5 results
|